DELTA 1 DEB, 29183

Orbit data source: Space-Track

DELTA 1 DEB, 29183 is space debris in LEO originally from a launch on Thu, 11 Jan 1968 UTC launched from the Air Force Western Test Range (AFWTR). Debris objects in space refer to the collection of defunct objects orbiting the Earth. Examples of debris include non-operational satellites, rocket bodies, and fragments generated from explosions, collisions, or faulty payload assembly.

Loading next visibility...
Identifier
29183, 1968-002G
Orbit
LEO
Country
Flag of USUS
Related business
Manufacturer
Unknown
Mission
Spacecraft
Bus & Motor
Unknown
Mass
Unknown
Launch date (UTC)
1968-01-11 (58 years ago)
Launch vehicle
Unknown
Launch site
Air Force Western Test Range (AFWTR)
Object type
Payload
Rocket body
Debris
Shape & HBR
Unknown shape, 0.1 m
Radar Cross Section
Small (<0.1 m²)

Expand to show TLE details & history
Last TLE update: 6 days ago

TLE from 6 days ago
0 DELTA 1 DEB
1 29183U 68002G   26121.70554271  .00001251  00000-0  21824-2 0  9990
2 29183 105.8013 283.5083 0225963  28.2718 350.8660 13.38135657 85314
Epoch: 2026-05-01T16:55Z
TLE epoch observation values (Epoch: 2026-05-01T16:55:58.890Z)
Latitude
17.98184°
Longitude
164.63651°
Altitude
951.059 km
Speed
7.46 km/s
True Right ascension
18h 33m 03s
True Declination
17° 53' 02"
Sunlit
Object was in daylight at epoch
Visualization orbit readout
Latitude
Unknown
Longitude
Unknown
Altitude
Unknown
Speed
Unknown
Apparent Right ascension
Unknown
Apparent Declination
Unknown
Sunlit
N/A
Visualization observer readout
Local Sidereal Time
15:34:39
Azimuth
Unknown
Elevation
Unknown
Doppler factor
Unknown
Orbital elements
Apogee altitude
1,283.244 km
Perigee altitude
944.657 km
Semi-major axis
7,492.088 km
Eccentricity
0.0226
Inclination
105.8013°
RAAN
283.5083°
Arg. of periapsis
28.2718°
True anomaly
350.44318°
Mean anomaly
350.866°
Eccentric anomaly
350.65579°
Mean motion
3.34687 °/min
Orbital period
107.56 mins
BSTAR
0.0021824
Loading maneuver chart data...
Computing Atmospheric mass density...
Loading historical data...
Loading historical data...
Loading historical data...
Loading historical data...
Loading historical data...
Loading historical data...
Loading historical data...

Documentation

Showing up to 5 results
|